[[{"header":{"parameterUnit":"m.s-1","parameterCategory":1,"la1":30.2991,"la2":30.254,"lo1":-89.0895,"lo2":-89.0444,"dy":0.0017,"dx":0.0017,"nx":28,"ny":28,"refTime":"2024-10-13T09:00:00:Z","depth":0,"parameterNumber":2,"parameterNumberName":"U-component_of_WINDS"},"data":[0,0,0,0,0,0,0,0,0,0,0,0,0,0,0,0,0,0,0,0,0,0,0,0,0,0,0,0,0,0,0,0,0,0,0,0,0,0,0,0,0,0,0,0,0,0,0,0,0,0,0,0,0,0,0,0,0,0,2.6881,2.6882,0,2.6933,2.6934,2.6934,2.684,2.6836,2.6833,2.683,2.6886,2.689,2.6895,0,0,0,0,0,0,0,0,0,0,0,0,0,2.6701,2.6705,2.6881,2.6882,2.6882,2.6933,2.6934,2.6934,2.684,2.6836,2.6832,2.6829,2.6884,2.689,2.6895,0,0,0,0,0,0,0,0,0,0,0,0,0,2.6769,2.6706,2.6881,2.6841,2.6838,2.6933,2.6934,2.6935,2.6841,2.6836,2.6831,2.6827,2.6883,2.6889,2.6896,2.7032,0,0,2.6916,2.6919,0,0,0,0,0,0,0,0,2.6765,2.6776,2.6847,2.6844,2.6841,2.6875,2.6891,2.6967,2.6842,2.684,2.683,2.6825,2.6886,2.6892,2.6913,2.7035,2.7037,2.6917,2.6921,2.6924,2.6925,0,0,0,0,0,0,0,2.6761,2.6773,2.6902,2.6848,2.6844,2.6821,2.6826,2.6905,2.6889,2.684,2.6833,2.684,2.6884,2.6906,2.6913,2.7038,2.6916,2.6922,2.6926,2.6929,2.7273,2.7278,0,0,0,0,0,0,2.6761,2.677,2.69,2.6903,2.6791,2.6829,2.6833,2.6869,2.6888,2.6886,2.6844,2.6836,2.6897,2.6906,2.6915,2.7074,2.6923,2.693,2.6934,2.7268,2.7274,2.728,0,0,0,0,0,0,2.6757,2.6773,2.6898,2.6835,2.6849,2.6837,2.6877,2.6872,2.6895,2.6892,2.6888,2.687,2.6894,2.6905,2.7003,2.7075,2.6933,2.6939,2.7262,2.727,2.7277,2.7395,0,0,0,0,0,0,2.6753,2.6773,2.6824,2.6837,2.6853,2.6985,2.6882,2.6877,2.6906,2.6895,2.6915,2.6914,2.6891,2.6994,2.701,2.7081,2.6944,2.7255,2.7265,2.7274,2.7385,2.7406,2.7424,0,0,0,0,0,2.6747,2.6856,2.6827,2.6843,2.6916,2.6989,2.6999,2.697,2.6912,2.6964,2.6962,2.6913,2.7065,2.7004,2.7022,2.7096,2.725,2.7262,2.7274,2.7376,2.7402,2.7423,0,0,0,0,0,0,2.6853,2.6857,2.6825,2.6942,2.6966,2.6973,2.7037,2.6998,2.704,2.7028,2.6991,2.6997,2.7102,2.7109,2.7042,2.7229,2.7148,2.7164,2.722,2.7244,2.7264,2.7259,2.6949,0,0,0,0,0,2.689,2.6948,2.6949,2.7052,2.7066,2.705,2.7081,2.7056,2.708,2.709,2.7095,2.7121,2.7174,2.721,2.7259,2.7386,2.7388,2.7446,2.7465,2.7482,2.7495,2.7561,2.7587,2.7318,2.7317,2.7317,0,0,2.6967,2.6976,2.7016,2.7074,2.7089,2.7151,2.7059,2.7128,2.7174,2.7101,2.7192,2.7198,2.7224,2.7336,2.7386,2.7346,2.757,2.7496,2.7509,2.7514,2.7576,2.7601,2.7624,2.7325,2.7324,2.7323,0,0,2.7138,2.7152,2.7238,2.7256,2.7281,2.7269,2.7291,2.7304,2.7304,2.7396,2.7342,2.7396,2.7489,2.7509,2.7532,2.7711,2.7667,2.7728,2.783,2.7895,2.7917,2.7935,2.7998,2.8021,2.7742,2.7742,2.7742,0,2.7231,2.7321,2.7288,2.736,2.7387,2.7324,2.7411,2.743,2.747,2.749,2.7444,2.7559,2.7572,2.7688,2.7731,2.7752,2.7775,2.7725,2.7916,2.7934,2.7951,2.801,2.8034,2.7749,2.7748,2.7748,2.7747,0,2.7432,2.7496,2.7563,2.7602,2.7637,2.7717,2.7696,2.7735,2.7708,2.7702,2.7795,2.7809,2.7859,2.7885,2.786,2.7998,2.7971,2.7922,2.784,2.7985,2.8039,2.8062,2.7759,2.7757,2.7755,2.7753,0,0,2.7671,2.7691,2.7716,2.7732,2.7755,2.7804,2.7881,2.7929,2.7963,2.7993,2.8056,2.8136,2.809,2.8116,2.8092,2.815,2.8289,2.8093,2.8093,2.8127,2.844,2.8476,2.8503,2.8261,2.8265,2.8269,2.8437,0,2.784,2.7971,2.7944,2.8073,2.813,2.8071,2.8138,2.816,2.8156,2.8205,2.8201,2.8258,2.8193,2.8208,2.8263,2.8261,2.8351,2.8249,2.8319,2.8322,2.8312,2.8532,2.857,2.8728,2.8459,2.8462,2.8465,0,2.8053,2.809,2.8225,2.8238,2.8261,2.8322,2.8363,2.841,2.8434,2.8427,2.8456,2.8422,2.8498,2.8417,2.8521,2.8452,2.8479,2.8483,2.8489,2.8492,2.8401,2.854,2.8778,2.8801,2.8499,2.8496,2.8494,0,2.8211,2.8295,2.8386,2.8403,2.842,2.8464,2.8474,2.8492,2.8523,2.856,2.8579,2.8625,2.865,2.8686,2.8665,2.8608,2.8773,2.869,2.8769,2.877,2.8805,2.8803,2.905,2.8827,2.8826,2.8826,2.8825,0,2.8401,2.8485,2.8457,2.8513,2.8606,2.8574,2.8667,2.8669,2.8687,2.8742,2.8695,2.8748,2.8718,2.8769,2.8753,2.8841,2.8854,2.885,2.8845,2.8853,2.8854,2.8869,2.8857,2.8832,2.8831,2.8829,2.8828,0,2.8593,2.8577,2.8672,2.8681,2.8686,2.8753,2.8761,2.8813,2.8806,2.8877,2.8892,2.8881,2.8939,2.8922,2.8985,2.8974,2.9085,2.9067,2.9077,2.9072,2.9151,2.9143,2.9415,2.9448,2.9206,2.9208,2.921,0,2.8714,2.8777,2.8793,2.8826,2.8839,2.8893,2.8924,2.8896,2.893,2.8961,2.9009,2.9062,2.9103,2.9198,2.9196,2.9244,2.9225,2.9317,2.9231,2.9238,2.9224,2.9219,2.9225,2.9333,2.9336,2.9338,2.934,0,2.8929,2.8919,2.8964,2.9007,2.9045,2.9078,2.9106,2.9137,2.911,2.9151,2.9208,2.924,2.9304,2.9357,2.94,2.941,2.9371,2.9367,2.9388,2.9396,2.9398,2.9396,2.9121,2.9361,2.9359,2.9357,2.9356,2.9355,2.9088,2.9141,2.916,2.9212,2.923,2.9258,2.9307,2.9306,2.9354,2.9402,2.9383,2.9449,2.9471,2.9525,2.9541,2.9592,2.9557,2.9588,2.9595,2.9602,2.9611,2.9392,2.9601,2.96,2.9599,2.9599,2.9598,0,2.9299,2.9309,2.9357,2.9398,2.9439,2.9399,2.9428,2.9465,2.9524,2.9547,2.9588,2.9654,2.9706,2.9708,2.9756,2.9797,2.978,2.981,2.9806,2.9809,2.9641,2.9617,2.9823,2.9823,2.9823,2.9823,2.9823,2.9823,2.9414,2.9501,2.9492,2.9588,2.9597,2.9661,2.9681,2.9706,2.9724,2.98,2.9842,2.9843,2.9858,2.9907,2.9952,2.9952,2.9971,3.0008,3.0001,2.9843,2.9821,2.9799,2.9777,3.0013,3.0013,3.0164,3.0165,3.0166]},{"header":{"parameterUnit":"m.s-1","parameterCategory":1,"la1":30.2991,"la2":30.254,"lo1":-89.0895,"lo2":-89.0444,"dy":0.0017,"dx":0.0017,"nx":28,"ny":28,"refTime":"2024-10-13T09:00:00:Z","depth":0,"parameterNumber":3,"parameterNumberName":"V-component_of_WINDS"},"data":[0,0,0,0,0,0,0,0,0,0,0,0,0,0,0,0,0,0,0,0,0,0,0,0,0,0,0,0,0,0,0,0,0,0,0,0,0,0,0,0,0,0,0,0,0,0,0,0,0,0,0,0,0,0,0,0,0,0,3.3261,3.326,0,3.3185,3.3185,3.3184,3.3056,3.3053,3.3051,3.3049,3.2973,3.2974,3.2974,0,0,0,0,0,0,0,0,0,0,0,0,0,3.3297,3.3297,3.3261,3.326,3.3259,3.3186,3.3185,3.3184,3.3056,3.3053,3.305,3.3048,3.2973,3.2974,3.2974,0,0,0,0,0,0,0,0,0,0,0,0,0,3.3258,3.3297,3.3261,3.3187,3.3179,3.3186,3.3185,3.3183,3.3057,3.3053,3.305,3.3046,3.2973,3.2974,3.2974,3.3048,0,0,3.2975,3.2975,0,0,0,0,0,0,0,0,3.326,3.3256,3.3199,3.3192,3.3184,3.3126,3.3169,3.3138,3.3058,3.3103,3.3049,3.3045,3.3027,3.3023,3.3017,3.3044,3.3041,3.2975,3.2975,3.2975,3.2975,0,0,0,0,0,0,0,3.3263,3.3259,3.3231,3.3198,3.3189,3.3158,3.3148,3.3163,3.3087,3.3099,3.309,3.3082,3.3023,3.3017,3.3014,3.304,3.2975,3.2975,3.2975,3.2976,3.3123,3.3126,0,0,0,0,0,0,3.3276,3.3262,3.3233,3.3229,3.3214,3.316,3.3149,3.3148,3.3086,3.3073,3.3086,3.3077,3.3018,3.3014,3.3011,3.3092,3.2975,3.2976,3.2976,3.3119,3.3124,3.3128,0,0,0,0,0,0,3.3277,3.3275,3.3237,3.3243,3.3236,3.3163,3.3163,3.3149,3.3143,3.3076,3.3062,3.3094,3.3015,3.301,3.3039,3.3087,3.2976,3.2976,3.3115,3.3121,3.3126,3.3256,0,0,0,0,0,0,3.3279,3.3276,3.3303,3.3244,3.3236,3.3266,3.3166,3.315,3.3143,3.3131,3.3079,3.3067,3.3012,3.3039,3.304,3.3086,3.2976,3.311,3.3117,3.3124,3.3247,3.3265,3.3281,0,0,0,0,0,3.3281,3.3343,3.3305,3.3302,3.3268,3.3269,3.3264,3.3198,3.3148,3.3174,3.3131,3.3069,3.3083,3.3043,3.3042,3.309,3.3107,3.3115,3.3123,3.3239,3.3261,3.328,0,0,0,0,0,0,3.341,3.3334,3.3291,3.3336,3.331,3.3247,3.3278,3.3224,3.3212,3.3201,3.3121,3.311,3.3149,3.3122,3.308,3.3157,3.3085,3.3094,3.3173,3.3194,3.3211,3.3215,3.2977,0,0,0,0,0,3.3443,3.345,3.3384,3.343,3.3419,3.3352,3.335,3.3301,3.3271,3.326,3.3219,3.3192,3.319,3.3191,3.3186,3.3243,3.3229,3.3275,3.3292,3.3306,3.3314,3.3341,3.336,3.3155,3.3155,3.3155,0,0,3.3513,3.3472,3.3482,3.3455,3.3429,3.3438,3.3343,3.3357,3.3363,3.3262,3.3286,3.3255,3.3221,3.3264,3.3281,3.3242,3.3368,3.3317,3.3329,3.3329,3.3352,3.3371,3.3389,3.3161,3.316,3.3159,0,0,3.3644,3.3614,3.3649,3.3625,3.3587,3.3541,3.355,3.3496,3.3471,3.3494,3.3418,3.3425,3.3424,3.3402,3.339,3.3514,3.3456,3.3515,3.3603,3.363,3.3647,3.366,3.3703,3.372,3.3523,3.3524,3.3524,0,3.3735,3.3745,3.3674,3.3692,3.3682,3.3592,3.3626,3.3607,3.3569,3.3565,3.3523,3.3519,3.3489,3.3525,3.3555,3.355,3.3557,3.3519,3.365,3.3663,3.3675,3.3715,3.3732,3.3531,3.353,3.3529,3.3529,0,3.3858,3.3867,3.39,3.3865,3.3859,3.3886,3.3819,3.3822,3.3775,3.3735,3.3759,3.372,3.3705,3.3711,3.3665,3.374,3.3718,3.3665,3.359,3.3703,3.3739,3.3754,3.3541,3.3539,3.3537,3.3535,0,0,3.4066,3.3993,3.4006,3.3988,3.394,3.3945,3.3969,3.3953,3.3957,3.3935,3.3951,3.3953,3.3903,3.389,3.3841,3.3866,3.3965,3.3809,3.3807,3.3838,3.4044,3.4084,3.4103,3.3927,3.393,3.3932,3.4047,0,3.4186,3.4219,3.4157,3.4205,3.4212,3.4126,3.4146,3.4119,3.4082,3.4083,3.4042,3.4044,3.3979,3.397,3.3991,3.3949,3.4005,3.394,3.3941,3.3942,3.3951,3.4121,3.4163,3.4273,3.4061,3.4063,3.4065,0,3.4329,3.4313,3.4363,3.4311,3.4311,3.433,3.4311,3.4313,3.4281,3.4252,3.4239,3.4181,3.42,3.413,3.4154,3.4111,3.4108,3.4088,3.4091,3.4087,3.4009,3.4121,3.4307,3.4323,3.4086,3.4085,3.4083,0,3.4474,3.4465,3.4493,3.4482,3.4423,3.4438,3.4414,3.4378,3.4373,3.4357,3.4352,3.4339,3.4332,3.4323,3.4263,3.4218,3.4295,3.422,3.4271,3.4273,3.429,3.4289,3.4477,3.4292,3.4291,3.4291,3.4291,0,3.4612,3.4646,3.4557,3.4575,3.4609,3.4538,3.4574,3.4542,3.4511,3.4521,3.4447,3.4458,3.4379,3.4381,3.4335,3.4362,3.436,3.4337,3.4324,3.4343,3.4345,3.4338,3.4328,3.4295,3.4295,3.4294,3.4293,0,3.4779,3.4721,3.4746,3.4689,3.4675,3.4703,3.4654,3.4668,3.4627,3.464,3.4639,3.4574,3.4573,3.4514,3.45,3.4469,3.4515,3.4489,3.4526,3.4516,3.4571,3.4566,3.4759,3.478,3.4584,3.4585,3.4587,0,3.487,3.4893,3.4839,3.4839,3.4819,3.4822,3.4816,3.4747,3.4744,3.471,3.4728,3.472,3.4711,3.4713,3.4665,3.4654,3.4626,3.4695,3.4624,3.4642,3.4625,3.4624,3.4625,3.4709,3.4712,3.4714,3.4715,0,3.5038,3.5008,3.5002,3.4987,3.4982,3.4967,3.4947,3.4952,3.4877,3.4877,3.4875,3.4868,3.4854,3.4848,3.4828,3.4804,3.4747,3.4738,3.4749,3.4767,3.4787,3.4776,3.4564,3.4734,3.4732,3.473,3.4729,3.4729,3.5167,3.5184,3.5148,3.5144,3.5122,3.5105,3.5115,3.5076,3.5072,3.5055,3.5015,3.502,3.4987,3.4955,3.4936,3.4938,3.4903,3.492,3.4924,3.4928,3.4938,3.4789,3.4934,3.4934,3.4933,3.4933,3.4932,0,3.5329,3.5302,3.53,3.5274,3.5271,3.5219,3.5194,3.5195,3.52,3.5174,3.5166,3.5164,3.5157,3.511,3.5098,3.5109,3.5082,3.5108,3.5105,3.51,3.497,3.4961,3.5129,3.5129,3.5129,3.5129,3.5129,3.5129,3.5413,3.5438,3.5405,3.5418,3.5391,3.5394,3.5384,3.5369,3.5348,3.5348,3.5342,3.5311,3.5277,3.5262,3.5254,3.524,3.5238,3.5272,3.5249,3.5129,3.511,3.5091,3.5082,3.5273,3.5273,3.5378,3.5379,3.538]}]]